[[{"header":{"parameterUnit":"m.s-1","parameterCategory":1,"la1":30.2991,"la2":30.254,"lo1":-89.0895,"lo2":-89.0444,"dy":0.0017,"dx":0.0017,"nx":28,"ny":28,"refTime":"2025-09-08T21:00:00:Z","depth":0,"parameterNumber":2,"parameterNumberName":"U-component_of_WINDS"},"data":[0,0,0,0,0,0,0,0,0,0,0,0,0,0,0,0,0,0,0,0,0,0,0,0,0,0,0,0,0,0,0,0,0,0,0,0,0,0,0,0,0,0,0,0,0,0,0,0,0,0,0,0,0,0,0,0,0,0,-5.7979,-5.7979,0,-5.7984,-5.7984,-5.7984,-5.7783,-5.7778,-5.7773,-5.7768,-5.7775,-5.778,-5.7785,0,0,0,0,0,0,0,0,0,0,0,0,0,-5.7794,-5.7799,-5.7979,-5.7979,-5.7979,-5.7984,-5.7984,-5.7984,-5.7784,-5.7778,-5.7771,-5.7765,-5.7773,-5.7779,-5.7786,0,0,0,0,0,0,0,0,0,0,0,0,0,-5.7845,-5.78,-5.7978,-5.7879,-5.7871,-5.7984,-5.7984,-5.7984,-5.7786,-5.7778,-5.777,-5.7762,-5.7771,-5.7779,-5.7786,-5.7995,0,0,-5.781,-5.7814,0,0,0,0,0,0,0,0,-5.7842,-5.7852,-5.7894,-5.7887,-5.7877,-5.7875,-5.7921,-5.7988,-5.7788,-5.7818,-5.7767,-5.7758,-5.7815,-5.7818,-5.7837,-5.7996,-5.7996,-5.7811,-5.7816,-5.7819,-5.7821,0,0,0,0,0,0,0,-5.7839,-5.785,-5.7981,-5.7895,-5.7884,-5.7835,-5.7833,-5.7933,-5.7862,-5.7815,-5.78,-5.7804,-5.7808,-5.783,-5.7836,-5.7996,-5.7811,-5.7818,-5.7822,-5.7825,-5.8322,-5.833,0,0,0,0,0,0,-5.7849,-5.7849,-5.798,-5.7981,-5.7839,-5.7845,-5.7842,-5.7884,-5.786,-5.7848,-5.781,-5.7794,-5.7821,-5.7827,-5.7835,-5.8075,-5.7819,-5.7826,-5.7831,-5.8314,-5.8324,-5.8333,0,0,0,0,0,0,-5.7846,-5.7862,-5.798,-5.7911,-5.7922,-5.7856,-5.7904,-5.7888,-5.7909,-5.7856,-5.7843,-5.7846,-5.7815,-5.7824,-5.7956,-5.8072,-5.783,-5.7837,-5.8304,-5.8317,-5.8329,-5.8558,0,0,0,0,0,0,-5.7841,-5.7862,-5.7941,-5.7914,-5.7926,-5.8102,-5.7911,-5.7894,-5.7923,-5.7902,-5.7886,-5.7876,-5.7809,-5.7945,-5.7964,-5.8079,-5.7843,-5.8293,-5.831,-5.8325,-5.854,-5.8577,-5.8609,0,0,0,0,0,-5.7835,-5.8007,-5.7947,-5.7964,-5.8024,-5.8109,-5.8116,-5.8035,-5.7933,-5.8011,-5.7977,-5.7876,-5.8058,-5.7961,-5.798,-5.8099,-5.8285,-5.8305,-5.8323,-5.8524,-5.857,-5.8609,0,0,0,0,0,0,-5.8051,-5.8002,-5.7934,-5.8102,-5.8111,-5.8075,-5.8171,-5.8087,-5.8125,-5.8104,-5.8003,-5.8001,-5.8149,-5.8137,-5.803,-5.8298,-5.8153,-5.8177,-5.8299,-5.8342,-5.8376,-5.8375,-5.7849,0,0,0,0,0,-5.8118,-5.8191,-5.8144,-5.8297,-5.8305,-5.8238,-5.8272,-5.8209,-5.8215,-5.8217,-5.8193,-5.8202,-5.826,-5.8301,-5.8352,-5.8538,-5.853,-5.8629,-5.8664,-5.8693,-5.8714,-5.8808,-5.885,-5.8396,-5.8396,-5.8396,0,0,-5.8258,-5.824,-5.8292,-5.834,-5.8339,-5.8416,-5.8242,-5.8332,-5.8388,-5.8231,-5.8352,-5.8335,-5.8339,-5.8498,-5.8566,-5.8492,-5.8838,-5.8717,-5.8741,-5.8746,-5.8832,-5.8875,-5.8913,-5.8409,-5.8407,-5.8405,0,0,-5.855,-5.8545,-5.867,-5.8672,-5.8673,-5.8627,-5.8658,-5.8634,-5.8616,-5.8736,-5.8619,-5.8684,-5.8789,-5.8794,-5.8811,-5.9105,-5.9012,-5.9125,-5.9305,-5.9398,-5.9433,-5.9465,-5.9566,-5.9604,-5.9147,-5.9147,-5.9147,0,-5.8723,-5.8834,-5.8745,-5.8841,-5.8865,-5.8726,-5.885,-5.8858,-5.8876,-5.8895,-5.8813,-5.8938,-5.8931,-5.9087,-5.9159,-5.9178,-5.9208,-5.9125,-5.9436,-5.9466,-5.9494,-5.9589,-5.9628,-5.916,-5.9159,-5.9158,-5.9156,0,-5.9045,-5.9124,-5.9225,-5.9243,-5.9279,-5.939,-5.9316,-5.9363,-5.9297,-5.926,-5.9383,-5.937,-5.9414,-5.9447,-5.9385,-5.9595,-5.9548,-5.9453,-5.9305,-5.9552,-5.9639,-5.9676,-5.918,-5.9175,-5.9171,-5.9168,0,0,-5.9472,-5.9439,-5.9478,-5.9483,-5.9473,-5.9532,-5.9637,-5.9679,-5.9719,-5.9737,-5.9819,-5.991,-5.982,-5.984,-5.9777,-5.9859,-6.0088,-5.9752,-5.9751,-5.9812,-6.0315,-6.0384,-6.0428,-6.0028,-6.0035,-6.004,-6.0313,0,-5.9753,-5.9926,-5.9848,-6.003,-6.01,-5.9969,-6.0059,-6.0063,-6.0031,-6.0086,-6.005,-6.0114,-5.9993,-6.0003,-6.0079,-6.0045,-6.0187,-6.0024,-6.0102,-6.0106,-6.0102,-6.0475,-6.0549,-6.0807,-6.0347,-6.0353,-6.0357,0,-6.0103,-6.0132,-6.0321,-6.0295,-6.0322,-6.0404,-6.0435,-6.049,-6.0491,-6.0462,-6.0483,-6.0401,-6.05,-6.0356,-6.0489,-6.038,-6.0408,-6.0396,-6.0404,-6.0405,-6.0244,-6.0483,-6.0888,-6.0926,-6.0411,-6.0407,-6.0403,0,-6.039,-6.0478,-6.0601,-6.0611,-6.0585,-6.0646,-6.0638,-6.0631,-6.0661,-6.0689,-6.0706,-6.0747,-6.0768,-6.0801,-6.0732,-6.0633,-6.0874,-6.0725,-6.0851,-6.0853,-6.0905,-6.0902,-6.1317,-6.093,-6.0929,-6.0929,-6.0928,0,-6.0709,-6.0829,-6.0729,-6.0805,-6.0934,-6.0844,-6.0975,-6.0953,-6.0948,-6.1016,-6.0907,-6.0974,-6.0879,-6.0937,-6.0884,-6.1001,-6.1013,-6.099,-6.0974,-6.0998,-6.1001,-6.1012,-6.0991,-6.0939,-6.0936,-6.0934,-6.0933,0,-6.1051,-6.099,-6.1114,-6.108,-6.1074,-6.1171,-6.1141,-6.1209,-6.1169,-6.1257,-6.1273,-6.1211,-6.1272,-6.1207,-6.1265,-6.1229,-6.1385,-6.1345,-6.1385,-6.1372,-6.15,-6.1488,-6.1934,-6.1987,-6.157,-6.1574,-6.1578,0,-6.1257,-6.1345,-6.132,-6.1357,-6.1355,-6.1418,-6.1446,-6.1362,-6.1396,-6.1403,-6.147,-6.1523,-6.1559,-6.1664,-6.1624,-6.1667,-6.1624,-6.1778,-6.163,-6.165,-6.1622,-6.1616,-6.1623,-6.1807,-6.1812,-6.1816,-6.1819,0,-6.1627,-6.1592,-6.1637,-6.1673,-6.171,-6.1734,-6.1749,-6.1786,-6.1698,-6.1743,-6.1803,-6.1832,-6.189,-6.1942,-6.1974,-6.1965,-6.1878,-6.1867,-6.1897,-6.1921,-6.1938,-6.1927,-6.1463,-6.1856,-6.1852,-6.185,-6.1848,-6.1846,-6.1904,-6.1975,-6.1967,-6.2021,-6.2024,-6.204,-6.2101,-6.2069,-6.2118,-6.2156,-6.2104,-6.2179,-6.2176,-6.2209,-6.2211,-6.2268,-6.2202,-6.2248,-6.2259,-6.227,-6.2288,-6.1933,-6.2274,-6.2273,-6.2272,-6.2271,-6.227,0,-6.2265,-6.2253,-6.2303,-6.2327,-6.237,-6.2284,-6.2296,-6.2337,-6.2403,-6.2408,-6.2446,-6.2515,-6.2565,-6.253,-6.2571,-6.2624,-6.2584,-6.2637,-6.263,-6.2629,-6.2346,-6.2313,-6.2668,-6.2668,-6.2668,-6.2668,-6.2668,-6.2668,-6.2457,-6.2571,-6.2535,-6.2649,-6.2636,-6.2707,-6.2721,-6.2736,-6.2738,-6.282,-6.286,-6.2837,-6.2825,-6.2864,-6.2906,-6.2894,-6.2913,-6.298,-6.2954,-6.2689,-6.265,-6.2612,-6.2581,-6.2986,-6.2987,-6.3232,-6.3234,-6.3236]},{"header":{"parameterUnit":"m.s-1","parameterCategory":1,"la1":30.2991,"la2":30.254,"lo1":-89.0895,"lo2":-89.0444,"dy":0.0017,"dx":0.0017,"nx":28,"ny":28,"refTime":"2025-09-08T21:00:00:Z","depth":0,"parameterNumber":3,"parameterNumberName":"V-component_of_WINDS"},"data":[0,0,0,0,0,0,0,0,0,0,0,0,0,0,0,0,0,0,0,0,0,0,0,0,0,0,0,0,0,0,0,0,0,0,0,0,0,0,0,0,0,0,0,0,0,0,0,0,0,0,0,0,0,0,0,0,0,0,-0.2509,-0.251,0,-0.2631,-0.2632,-0.2634,-0.2755,-0.2756,-0.2758,-0.276,-0.2886,-0.2888,-0.2889,0,0,0,0,0,0,0,0,0,0,0,0,0,-0.2381,-0.2383,-0.2509,-0.251,-0.2512,-0.2631,-0.2632,-0.2634,-0.2755,-0.2756,-0.2758,-0.276,-0.2885,-0.2887,-0.289,0,0,0,0,0,0,0,0,0,0,0,0,0,-0.2463,-0.2383,-0.2508,-0.2586,-0.2594,-0.263,-0.2632,-0.2634,-0.2754,-0.2757,-0.2759,-0.2761,-0.2884,-0.2887,-0.289,-0.2859,0,0,-0.2899,-0.29,0,0,0,0,0,0,0,0,-0.2458,-0.2468,-0.2573,-0.2581,-0.259,-0.268,-0.2634,-0.271,-0.2754,-0.2693,-0.276,-0.2762,-0.2815,-0.2824,-0.2842,-0.2865,-0.2871,-0.2899,-0.29,-0.2902,-0.2902,0,0,0,0,0,0,0,-0.2452,-0.2463,-0.2557,-0.2575,-0.2585,-0.2615,-0.263,-0.2649,-0.274,-0.2699,-0.2708,-0.2721,-0.2821,-0.2839,-0.2846,-0.2873,-0.2899,-0.2901,-0.2903,-0.2904,-0.2877,-0.2875,0,0,0,0,0,0,-0.2435,-0.2457,-0.2553,-0.2561,-0.2529,-0.2616,-0.2632,-0.2649,-0.274,-0.2756,-0.2719,-0.2726,-0.2833,-0.2842,-0.2851,-0.2821,-0.2902,-0.2904,-0.2906,-0.2879,-0.2877,-0.2874,0,0,0,0,0,0,-0.2431,-0.2442,-0.2548,-0.2512,-0.2527,-0.2615,-0.2633,-0.265,-0.2668,-0.2755,-0.2771,-0.272,-0.2835,-0.2847,-0.2856,-0.2827,-0.2906,-0.2908,-0.2882,-0.2879,-0.2875,-0.276,0,0,0,0,0,0,-0.2427,-0.244,-0.2429,-0.251,-0.2529,-0.2551,-0.2632,-0.2651,-0.2673,-0.2683,-0.2761,-0.2776,-0.2838,-0.2851,-0.2859,-0.2832,-0.291,-0.2885,-0.2881,-0.2876,-0.2767,-0.2753,-0.2741,0,0,0,0,0,-0.2422,-0.2392,-0.2428,-0.2439,-0.2517,-0.2549,-0.256,-0.2631,-0.267,-0.266,-0.2715,-0.2773,-0.2829,-0.2851,-0.2861,-0.2834,-0.2888,-0.2882,-0.2877,-0.2773,-0.2756,-0.2741,0,0,0,0,0,0,-0.2306,-0.2404,-0.2445,-0.244,-0.2485,-0.2569,-0.2559,-0.2611,-0.2647,-0.2655,-0.2743,-0.2759,-0.2759,-0.2798,-0.2821,-0.2809,-0.2866,-0.2862,-0.2784,-0.2768,-0.2756,-0.2746,-0.2913,0,0,0,0,0,-0.2279,-0.2297,-0.2382,-0.237,-0.239,-0.247,-0.2487,-0.2538,-0.2589,-0.2608,-0.2665,-0.2712,-0.274,-0.2756,-0.2787,-0.2773,-0.2792,-0.276,-0.2747,-0.2736,-0.2731,-0.2727,-0.2713,-0.2856,-0.2856,-0.2856,0,0,-0.2225,-0.2281,-0.2287,-0.2348,-0.2389,-0.2405,-0.2485,-0.25,-0.2513,-0.2611,-0.2623,-0.2666,-0.2724,-0.2721,-0.2723,-0.2754,-0.2696,-0.2729,-0.2719,-0.2721,-0.272,-0.2706,-0.2694,-0.2853,-0.2853,-0.2854,0,0,-0.2135,-0.2179,-0.2173,-0.2212,-0.2273,-0.2326,-0.2325,-0.2401,-0.2433,-0.2447,-0.252,-0.2538,-0.2584,-0.2623,-0.2648,-0.2572,-0.2627,-0.2579,-0.2511,-0.2506,-0.2495,-0.2485,-0.2457,-0.2446,-0.2575,-0.2574,-0.2574,0,-0.206,-0.2087,-0.2163,-0.2173,-0.2197,-0.2286,-0.2281,-0.2316,-0.2383,-0.2398,-0.2432,-0.2492,-0.2538,-0.2545,-0.2526,-0.2544,-0.2545,-0.2571,-0.249,-0.2481,-0.2473,-0.2448,-0.2437,-0.2568,-0.2569,-0.257,-0.257,0,-0.1991,-0.2009,-0.1997,-0.2059,-0.2083,-0.2085,-0.2162,-0.2176,-0.2225,-0.2275,-0.2288,-0.2346,-0.2389,-0.2395,-0.2444,-0.2409,-0.2427,-0.2474,-0.2532,-0.2452,-0.243,-0.2421,-0.2559,-0.2562,-0.2563,-0.2565,0,0,-0.1831,-0.1935,-0.1929,-0.1958,-0.2032,-0.2047,-0.2053,-0.2096,-0.2106,-0.215,-0.2157,-0.2194,-0.2238,-0.2267,-0.2321,-0.2316,-0.2251,-0.2364,-0.2367,-0.234,-0.2216,-0.218,-0.2167,-0.2288,-0.2286,-0.2285,-0.2211,0,-0.1752,-0.1768,-0.1837,-0.1832,-0.1849,-0.1934,-0.1939,-0.1985,-0.2032,-0.2053,-0.2106,-0.213,-0.2187,-0.2205,-0.2204,-0.2259,-0.2227,-0.2265,-0.2295,-0.2295,-0.2277,-0.2156,-0.2117,-0.2045,-0.2203,-0.2202,-0.2201,0,-0.1663,-0.17,-0.1696,-0.1769,-0.1779,-0.1782,-0.1826,-0.1846,-0.19,-0.1934,-0.1966,-0.2026,-0.2037,-0.2092,-0.2109,-0.2133,-0.215,-0.2179,-0.2178,-0.2183,-0.2243,-0.2157,-0.2024,-0.2012,-0.2188,-0.2189,-0.219,0,-0.1545,-0.1594,-0.1599,-0.1621,-0.1706,-0.1706,-0.1742,-0.1798,-0.1819,-0.1858,-0.1872,-0.1912,-0.1933,-0.1963,-0.2032,-0.2065,-0.204,-0.2102,-0.2069,-0.2067,-0.206,-0.2059,-0.1926,-0.2071,-0.2071,-0.2071,-0.2072,0,-0.145,-0.1444,-0.1547,-0.1549,-0.1545,-0.1625,-0.1619,-0.1663,-0.1712,-0.1725,-0.1801,-0.1812,-0.1902,-0.1923,-0.1977,-0.1983,-0.1992,-0.2021,-0.2035,-0.2013,-0.2009,-0.2025,-0.2032,-0.2069,-0.2069,-0.207,-0.207,0,-0.1318,-0.1386,-0.1396,-0.1475,-0.1495,-0.1489,-0.1557,-0.1563,-0.1614,-0.1629,-0.1638,-0.1718,-0.1747,-0.1819,-0.1866,-0.1903,-0.1893,-0.192,-0.1875,-0.1884,-0.1847,-0.1849,-0.1719,-0.1706,-0.1859,-0.1857,-0.1856,0,-0.1252,-0.125,-0.1329,-0.1342,-0.1374,-0.1395,-0.1417,-0.1495,-0.1514,-0.1575,-0.1573,-0.1608,-0.164,-0.1681,-0.1744,-0.1781,-0.1809,-0.1761,-0.1815,-0.1793,-0.1808,-0.1807,-0.1807,-0.1749,-0.1747,-0.1745,-0.1744,0,-0.1129,-0.1162,-0.119,-0.1229,-0.1252,-0.1287,-0.1326,-0.1333,-0.1421,-0.1439,-0.1469,-0.1493,-0.1541,-0.1574,-0.1621,-0.1658,-0.1715,-0.1726,-0.1721,-0.1698,-0.1672,-0.1685,-0.1841,-0.1729,-0.173,-0.1731,-0.1732,-0.1733,-0.1028,-0.1029,-0.1084,-0.1113,-0.115,-0.1185,-0.1194,-0.1246,-0.1272,-0.1316,-0.1361,-0.1386,-0.144,-0.1508,-0.1542,-0.1563,-0.1592,-0.1584,-0.1582,-0.1579,-0.1569,-0.1668,-0.1572,-0.1572,-0.1573,-0.1573,-0.1573,0,-0.0908,-0.0947,-0.0972,-0.1024,-0.1046,-0.1097,-0.1143,-0.1158,-0.1179,-0.1224,-0.1253,-0.1287,-0.132,-0.1385,-0.1423,-0.1427,-0.1455,-0.1435,-0.1435,-0.1443,-0.154,-0.1541,-0.1412,-0.1412,-0.1412,-0.1412,-0.1412,-0.1412,-0.0847,-0.0852,-0.0892,-0.0917,-0.0957,-0.0981,-0.1003,-0.1035,-0.1072,-0.1106,-0.1133,-0.1175,-0.1229,-0.1272,-0.1304,-0.1322,-0.1333,-0.1304,-0.1331,-0.1421,-0.1436,-0.145,-0.1451,-0.1306,-0.1306,-0.1232,-0.1231,-0.123]}]]